Regional Weather Roundup
Issued by NWS Newport/Morehead, NC

Current Version | Previous Version | Graphics & Text | Print | Product List | Glossary Off
Versions: 1 2 3 4 5 6 7 8 9 10 11 12 13 14 15 16 17 18 19 20 21 22 23 24 25 26 27 28 29 30 31 32 33 34 35 36 37 38 39 40 41 42 43 44 45 46 47 48 49 50

922
ASUS42 KMHX 212313
RWRMHX
WEATHER ROUNDUP FOR EASTERN NORTH CAROLINA
NATIONAL WEATHER SERVICE NEWPORT/MOREHEAD CITY NC
600 PM EST SAT JAN 21 2017

NOTE: "FAIR" INDICATES FEW OR NO CLOUDS BELOW 12,000 FEET
WITH NO SIGNIFICANT WEATHER AND/OR OBSTRUCTIONS TO VISIBILITY

NCZ015>017-031-032-045>047-102-103-220000-
NORTH COAST

CITY           SKY/WX    TMP DP  RH WIND       PRES   REMARKS
EDENTON        CLOUDY    54  52  92 CALM      29.81S
ELIZABETH CITY CLOUDY    49  49 100 CALM      29.82F
KITTY HAWK     NOT AVBL
MANTEO         CLOUDY    50  50 100 NE5       29.82F

$$

NCZ045>047-081-094-103-104-220000-
CENTRAL COAST

CITY           SKY/WX    TMP DP  RH WIND       PRES   REMARKS
FRISCO         CLOUDY    56  53  90 NE5       29.79F

$$

NCZ095-097-098-100-101-220000-
SOUTHERN COAST

CITY           SKY/WX    TMP DP  RH WIND       PRES   REMARKS
BEAUFORT       CLOUDY    58  54  86 NE3       29.79S
CEDAR ISLAND   NOT AVBL
JACKSONVILLE   CLOUDY    63  62  97 SE6       29.77S
PINEY ISLAND   CLOUDY   N/A N/A N/A E5        29.80F
WILMINGTON     CLOUDY    62  61  96 E3        29.76S


$$

NCZ011>013-027>030-043-044-078>080-089-090>093-098-220000-
COASTAL PLAIN

CITY           SKY/WX    TMP DP  RH WIND       PRES   REMARKS
AHOSKIE          N/A     52  51  97 CALM      29.80F
CLINTON        LGT RAIN  61  61 100 CALM      29.75F
ELIZABETHTOWN  CLOUDY    64  64 100 SE3       29.74F
GOLDSBORO      LGT RAIN  57  57 100 E8        29.75F FOG
GREENVILLE     RAIN      57  55  94 CALM      29.81S
HAVELOCK       CLOUDY    55  52  89 E6        29.80S
KENANSVILLE    LGT RAIN  59  59 100 E5        29.76S FOG
KINSTON        LGT RAIN  57  57 100 E5        29.78F
NEW BERN       CLOUDY    56  54  93 E3        29.80S
RICHLANDS      LGT RAIN  61  60  97 E3        29.78S
ROCKY MOUNT    LGT RAIN  54  54 100 VRB3      29.78F FOG
WASHINGTON     CLOUDY    55  52  90 E6          N/A
WHITEVILLE     CLOUDY    66  64  95 SE6       29.74F

$$

AMZ130-135-150-152-154-156-158-170-250-252-270-ANZ085-086-088-633-658-670-220000-
MARINE OBSERVATIONS

STATION/POSITION TIME  TEMP    WIND        PRES    WAVE   SWELL
                       AIR SEA DIR/SP/G            HT/PER HT/PER
                 (UTC) (F)     (DEG/KT/KT) (MB)    (FT/S) (FT/S)
CHESAPEAKE LIGHT NOT AVBL
64 E VA BEACH    2250   56 57   30/  4/  6 1010.2    4/11   3/11
DUCK             2248      46   50/  5/  5 1009.1
2 E DUCK         2300      47                N/A     3/11   2/11
OREGON INLET     2248           30/  5/  6 1009.5
13E OREGON INLT  NOT AVBL
HATTERAS CG      2248      55   60/  6/  9 1008.5
DIAMOND BUOY     2250   71 74  160/ 10/ 14 1009.1    4/10   3/10
CAPE LOOKOUT     2300   60      40/  9/ 11 1008.1
BEAUFORT LAB     2248      51   40/  4/  6 1007.6
30 SE NEW RVR IN 2208   66 66  180/  6/ 10 1008.3
30 SE NEW RVR IN 2243      66                N/A     3/11   2/11
27 SE WRIGHTSVLE 2208   72 72  170/ 14/ 19 1007.6
5 SE WRIGHTSVLE  2208   56      40/  8/ 10 1007.6
225 S CAPE HAT   2250   70 71  130/ 12/ 14 1010.9    5/ 6   3/ 6
41 SE CHARLESTON 2250   72 66  190/ 16/ 19 1005.9    2/11   2/11

$$




USA.gov is the U.S. government's official web portal to all federal, state and local government web resources and services.